Flag for U.S.A. Weather past 2 weeks in Scranton, Pennsylvania, U.S.A.

Now
54 °F

Clear.


Feels Like: 50 °F
Forecast: 33 / 68 °F
Wind: 15 mph from South

Location: Barre - Scranton - Wilkes-Barre / Scranton International Airport


UV Index: 5 (Moderate)

Visibility: 10 mi


Pressure: 30.28 "Hg

Humidity: 33%

Dew point: 25 °F

Location of ScrantonLocation

Historic Weather in Scranton

°F

Scranton temperature yesterday

Maximum temperature yesterday: 60 °F (at 2:54 PM)
Minimum temperature yesterday: 35 °F (at 5:54 AM)
Average temperature yesterday: 49 °F

Past Weeks' High & Low Weather Summary

 TemperatureHumidityPressure
High80 °F (Apr 13, 2:54 PM)96% (Apr 8, 5:54 AM)30.66 "Hg (Apr 8, 5:54 AM)
Low23 °F (Apr 16, 5:54 AM)18% (Apr 6, 6:54 PM)29.39 "Hg (Apr 8, 9:54 AM)
Average49 °F56%30.07 "Hg
* Reported Apr 5 7:54 PM — Apr 20 7:54 PM, Scranton, Weather by CustomWeather, © 2014

Note: Actual official high and low records may vary slightly from our data, if they occured in-between our weather recording intervals... More about our weather records

Advertising

Historic Weather Conditions — Data for Previous 24 hours

 ConditionsComfort  
Time TempWeatherWind HumidityBarometerVisibility
7:54 PM
Apr 20
57 °FSunny.13 mph29%30.29 "Hg10 mi
6:54 PM62 °FSunny.7 mph26%30.29 "Hg10 mi
5:54 PM64 °FSunny.9 mph24%30.30 "Hg10 mi
4:54 PM65 °FSunny.8 mph24%30.31 "Hg10 mi
3:54 PM65 °FSunny.6 mph21%30.32 "Hg10 mi
2:54 PM64 °FSunny.7 mph24%30.34 "Hg10 mi
1:54 PM63 °FSunny.10 mph26%30.36 "Hg10 mi
12:54 PM60 °FSunny.9 mph27%30.38 "Hg10 mi
11:54 AM58 °FSunny.9 mph31%30.40 "Hg10 mi
10:54 AM55 °FSunny.No wind34%30.42 "Hg10 mi
9:54 AM51 °FSunny.5 mph41%30.43 "Hg10 mi
8:54 AM48 °FSunny.3 mph44%30.44 "Hg10 mi
7:54 AM42 °FSunny.6 mph51%30.44 "Hg10 mi
6:54 AM40 °FClear.8 mph55%30.43 "Hg10 mi
5:54 AM39 °FClear.6 mph55%30.41 "Hg10 mi
4:54 AM38 °FClear.5 mph60%30.41 "Hg10 mi
3:54 AM37 °FClear.3 mph65%30.40 "Hg10 mi
2:54 AM38 °FClear.7 mph63%30.39 "Hg10 mi
1:54 AM39 °FClear.7 mph60%30.38 "Hg10 mi
12:54 AM41 °FClear.6 mph55%30.37 "Hg10 mi
11:54 PM
Apr 19
44 °FClear.3 mph47%30.37 "Hg10 mi
10:54 PM47 °FClear.5 mph42%30.36 "Hg10 mi
9:54 PM48 °FClear.6 mph43%30.36 "Hg10 mi
Weather by CustomWeather, © 2014

See weather overview